| time (UTC) | temp C | wind direction | speed KPH | gust KPH | rain 1hr cm | rain 24hr cm | rain mn cm | humidity % | barometer mb |
| 20260506180021 | 21 | 210 | 0.0 | 0.0 | 0.00 | 0.00 | 0.00 | 48 | 1005.5 |
| 20260506174522 | 21 | 198 | 0.0 | 0.0 | 0.00 | 0.00 | 0.00 | 46 | 1005.3 |
| 20260506173020 | 21 | 198 | 0.0 | 0.0 | 0.00 | 0.00 | 0.00 | 44 | 1005.4 |
| 20260506171520 | 22 | 198 | 0.0 | 0.0 | 0.00 | 0.00 | 0.00 | 43 | 1005.4 |
| 20260506170020 | 22 | 198 | 0.0 | 0.0 | 0.00 | 0.00 | 0.00 | 42 | 1005.3 |
| 20260506164519 | 22 | 198 | 0.0 | 0.0 | 0.00 | 0.00 | 0.00 | 41 | 1005.2 |
| 20260506163036 | 22 | 198 | 0.0 | 0.0 | 0.00 | 0.00 | 0.00 | 40 | 1005.1 |
| 20260506161519 | 23 | 198 | 0.0 | 0.0 | 0.00 | 0.00 | 0.00 | 39 | 1005.1 |
| 20260506160018 | 24 | 198 | 0.0 | 0.0 | 0.00 | 0.00 | 0.00 | 37 | 1005.1 |
| 20260506154524 | 25 | 194 | 0.0 | 0.0 | 0.00 | 0.00 | 0.00 | 36 | 1004.9 |
| 20260506153017 | 25 | 194 | 0.0 | 3.2 | 0.00 | 0.00 | 0.00 | 36 | 1004.9 |
| 20260506151516 | 25 | 200 | 0.0 | 0.0 | 0.00 | 0.00 | 0.00 | 35 | 1005.1 |
| 20260506150017 | 25 | 264 | 1.6 | 6.4 | 0.00 | 0.00 | 0.00 | 35 | 1005.1 |
| 20260506144517 | 25 | 278 | 0.0 | 12.9 | 0.00 | 0.00 | 0.00 | 36 | 1005.1 |
| 20260506143017 | 25 | 272 | 0.0 | 6.4 | 0.00 | 0.00 | 0.00 | 36 | 1005.1 |
| 20260506141515 | 25 | 322 | 1.6 | 14.5 | 0.00 | 0.00 | 0.00 | 35 | 1005.0 |
| 20260506140015 | 26 | 267 | 1.6 | 14.5 | 0.00 | 0.00 | 0.00 | 35 | 1004.8 |
| 20260506134515 | 26 | 247 | 0.0 | 8.0 | 0.00 | 0.00 | 0.00 | 34 | 1005.0 |
| 20260506133015 | 26 | 281 | 0.0 | 9.7 | 0.00 | 0.00 | 0.00 | 34 | 1004.9 |
| 20260506131517 | 26 | 283 | 0.0 | 12.9 | 0.00 | 0.00 | 0.00 | 33 | 1004.9 |
| 20260506130015 | 27 | 289 | 1.6 | 14.5 | 0.00 | 0.00 | 0.00 | 31 | 1004.8 |
| 20260506124512 | 27 | 305 | 1.6 | 17.7 | 0.00 | 0.00 | 0.00 | 31 | 1004.9 |
| 20260506123011 | 27 | 285 | 4.8 | 22.5 | 0.00 | 0.00 | 0.00 | 31 | 1005.1 |
| 20260506121509 | 27 | 287 | 8.0 | 17.7 | 0.00 | 0.00 | 0.00 | 32 | 1005.1 |
| 20260506120008 | 27 | 277 | 4.8 | 19.3 | 0.00 | 0.00 | 0.00 | 30 | 1005.3 |
| 20260506114508 | 27 | 243 | 4.8 | 20.9 | 0.00 | 0.00 | 0.00 | 31 | 1005.4 |
| 20260506113008 | 27 | 345 | 6.4 | 22.5 | 0.00 | 0.00 | 0.00 | 31 | 1005.5 |
| 20260506111504 | 26 | 278 | 3.2 | 17.7 | 0.00 | 0.00 | 0.00 | 32 | 1005.5 |
| 20260506110005 | 26 | 232 | 4.8 | 22.5 | 0.00 | 0.00 | 0.00 | 32 | 1005.7 |
| 20260506104502 | 26 | 226 | 3.2 | 16.1 | 0.00 | 0.00 | 0.00 | 33 | 1005.9 |
| 20260506103002 | 26 | 299 | 1.6 | 16.1 | 0.00 | 0.00 | 0.00 | 33 | 1006.0 |
| 20260506101600 | 27 | 268 | 0.0 | 19.3 | 0.00 | 0.00 | 0.00 | 31 | 1006.0 |
| 20260506100058 | 27 | 287 | 1.6 | 14.5 | 0.00 | 0.00 | 0.00 | 33 | 1006.0 |
| 20260506094557 | 26 | 203 | 1.6 | 16.1 | 0.00 | 0.00 | 0.00 | 34 | 1006.1 |
| 20260506093110 | 26 | 236 | 1.6 | 17.7 | 0.00 | 0.00 | 0.00 | 34 | 1006.2 |
| 20260506091553 | 26 | 245 | 1.6 | 11.3 | 0.00 | 0.00 | 0.00 | 36 | 1006.3 |
| 20260506090058 | 26 | 263 | 1.6 | 22.5 | 0.00 | 0.00 | 0.00 | 35 | 1006.5 |
| 20260506084550 | 26 | 179 | 3.2 | 14.5 | 0.00 | 0.00 | 0.00 | 35 | 1006.5 |
| 20260506083047 | 26 | 255 | 0.0 | 12.9 | 0.00 | 0.00 | 0.00 | 36 | 1006.6 |
| 20260506081545 | 26 | 278 | 1.6 | 8.0 | 0.00 | 0.00 | 0.00 | 37 | 1006.7 |
| 20260506073040 | 25 | 209 | 0.0 | 8.0 | 0.00 | 0.00 | 0.00 | 41 | 1007.0 |
| 20260506071535 | 24 | 212 | 1.6 | 8.0 | 0.00 | 0.00 | 0.00 | 43 | 1007.2 |
| 20260506061527 | 22 | 155 | 0.0 | 9.7 | 0.00 | 0.00 | 0.00 | 45 | 1007.5 |
| 20260506044515 | 20 | 268 | 0.0 | 6.4 | 0.00 | 0.00 | 0.00 | 50 | 1007.6 |
| 20260506043008 | 19 | 222 | 0.0 | 8.0 | 0.00 | 0.00 | 0.00 | 52 | 1007.5 |
| 20260506041505 | 18 | 260 | 0.0 | 9.7 | 0.00 | 0.00 | 0.00 | 53 | 1007.5 |
| 20260506040003 | 18 | 296 | 0.0 | 8.0 | 0.00 | 0.00 | 0.00 | 53 | 1007.6 |
| 20260506034606 | 18 | 167 | 0.0 | 3.2 | 0.00 | 0.00 | 0.00 | 54 | 1007.4 |
| 20260506033058 | 17 | 201 | 0.0 | 9.7 | 0.00 | 0.00 | 0.00 | 55 | 1007.2 |
| 20260506031600 | 17 | 204 | 0.0 | 1.6 | 0.00 | 0.00 | 0.00 | 56 | 1007.3 |
| 20260506030057 | 16 | 222 | 0.0 | 6.4 | 0.00 | 0.00 | 0.00 | 57 | 1007.3 |
| 20260506024603 | 16 | 200 | 0.0 | 4.8 | 0.00 | 0.00 | 0.00 | 59 | 1007.2 |
| 20260506023057 | 15 | 189 | 0.0 | 1.6 | 0.00 | 0.00 | 0.00 | 60 | 1007.1 |
| 20260506021555 | 15 | 201 | 0.0 | 0.0 | 0.00 | 0.00 | 0.00 | 62 | 1007.2 |
| 20260506020118 | 14 | 196 | 0.0 | 0.0 | 0.00 | 0.00 | 0.00 | 64 | 1007.0 |
| 20260506014551 | 14 | 196 | 0.0 | 0.0 | 0.00 | 0.00 | 0.00 | 65 | 1007.0 |
| 20260506013051 | 13 | 196 | 0.0 | 0.0 | 0.00 | 0.00 | 0.00 | 65 | 1006.9 |
| 20260506011551 | 13 | 196 | 0.0 | 0.0 | 0.00 | 0.00 | 0.00 | 66 | 1006.8 |
| 20260506010051 | 13 | 196 | 0.0 | 0.0 | 0.00 | 0.00 | 0.00 | 66 | 1006.8 |
| 20260506004549 | 13 | 196 | 0.0 | 0.0 | 0.00 | 0.00 | 0.00 | 66 | 1006.7 |
| 20260506003048 | 13 | 195 | 0.0 | 0.0 | 0.00 | 0.00 | 0.00 | 65 | 1006.7 |
| 20260506001554 | 13 | 195 | 0.0 | 0.0 | 0.00 | 0.00 | 0.00 | 64 | 1006.7 |
| 20260506000056 | 14 | 196 | 0.0 | 0.0 | 0.00 | 0.00 | 0.00 | 62 | 1006.7 |
| 20260505234543 | 15 | 196 | 0.0 | 0.0 | 0.00 | 0.00 | 0.00 | 59 | 1006.7 |
| 20260505233044 | 15 | 195 | 0.0 | 0.0 | 0.00 | 0.00 | 0.00 | 59 | 1006.7 |
| 20260505231538 | 15 | 195 | 0.0 | 0.0 | 0.00 | 0.00 | 0.00 | 58 | 1006.7 |
| 20260505230042 | 15 | 194 | 0.0 | 0.0 | 0.00 | 0.00 | 0.00 | 58 | 1006.7 |
| 20260505224543 | 16 | 220 | 0.0 | 0.0 | 0.00 | 0.00 | 0.00 | 57 | 1006.8 |
| 20260505223037 | 16 | 221 | 0.0 | 3.2 | 0.00 | 0.00 | 0.00 | 57 | 1006.8 |
| 20260505221530 | 16 | 197 | 0.0 | 1.6 | 0.00 | 0.00 | 0.00 | 57 | 1006.9 |
| 20260505220028 | 16 | 185 | 0.0 | 1.6 | 0.00 | 0.00 | 0.00 | 56 | 1006.8 |
| 20260505214528 | 16 | 230 | 0.0 | 1.6 | 0.00 | 0.00 | 0.00 | 56 | 1006.7 |
| 20260505213029 | 16 | 212 | 0.0 | 6.4 | 0.00 | 0.00 | 0.00 | 57 | 1006.8 |
| 20260505211531 | 16 | 208 | 0.0 | 0.0 | 0.00 | 0.00 | 0.00 | 57 | 1006.8 |
| 20260505210023 | 17 | 208 | 0.0 | 8.0 | 0.00 | 0.00 | 0.00 | 56 | 1006.8 |
| 20260505204523 | 17 | 203 | 0.0 | 6.4 | 0.00 | 0.00 | 0.00 | 56 | 1006.8 |
| 20260505203021 | 17 | 207 | 0.0 | 3.2 | 0.00 | 0.00 | 0.00 | 56 | 1006.9 |
| 20260505201518 | 17 | 210 | 0.0 | 1.6 | 0.00 | 0.00 | 0.00 | 55 | 1006.8 |
| 20260505200017 | 17 | 212 | 0.0 | 1.6 | 0.00 | 0.00 | 0.00 | 54 | 1006.9 |
| 20260505194516 | 18 | 213 | 0.0 | 4.8 | 0.00 | 0.00 | 0.00 | 54 | 1006.9 |
| 20260505193015 | 18 | 210 | 0.0 | 1.6 | 0.00 | 0.00 | 0.00 | 53 | 1006.9 |
| 20260505191518 | 18 | 197 | 0.0 | 0.0 | 0.00 | 0.00 | 0.00 | 53 | 1006.9 |
| 20260505190015 | 18 | 206 | 0.0 | 0.0 | 0.00 | 0.00 | 0.00 | 52 | 1006.9 |
| 20260505184514 | 18 | 199 | 0.0 | 0.0 | 0.00 | 0.00 | 0.00 | 52 | 1006.9 |
| 20260505183015 | 18 | 197 | 0.0 | 3.2 | 0.00 | 0.00 | 0.00 | 52 | 1007.0 |
| 20260505181513 | 18 | 218 | 0.0 | 0.0 | 0.00 | 0.00 | 0.00 | 51 | 1007.0 |